EW1160 Weather Reports


Display with metric or nautical units.
time (UTC)temp
F
wind
direction
speed
MPH
gust
MPH
rain 1hr
in
rain 24hr
in
rain mn
in
humidity
%
barometer
mb
20260905190041 71 310 3.0 9.0 0.00 0.01 0.00 81 1013.0
20260905184529 71 12 3.0 14.0 0.00 0.01 0.00 81 1013.0
20260905183025 71 11 4.0 13.0 0.00 0.01 0.00 80 1013.2
20260905181506 71 359 3.0 11.0 0.00 0.01 0.00 79 1013.4
20260905180007 71 337 3.0 9.0 0.00 0.01 0.00 80 1013.3
20260905174547 71 25 3.0 10.0 0.00 0.01 0.00 78 1013.0
20260905173104 71 10 2.0 10.0 0.00 0.01 0.00 79 1012.9
20260905171530 71 15 4.0 10.0 0.00 0.01 0.00 79 1013.1
20260905170029 71 339 4.0 9.0 0.00 0.01 0.00 78 1013.1
20260905164516 71 47 2.0 8.0 0.00 0.01 0.00 80 1013.0
20260905163011 71 12 3.0 9.0 0.00 0.01 0.00 78 1013.1
20260905161611 71 41 3.0 9.0 0.00 0.01 0.00 79 1013.2
20260905160058 72 14 2.0 7.0 0.00 0.01 0.00 75 1013.1
20260905154607 73 66 1.0 10.0 0.00 0.01 0.00 72 1013.0
20260905153055 73 149 0.0 4.0 0.00 0.01 0.00 69 1013.1
20260905151553 72 60 0.0 4.0 0.00 0.01 0.00 70 1013.0
20260905150054 72 116 0.0 3.0 0.00 0.01 0.00 73 1012.9
20260905144550 71 87 0.0 1.0 0.00 0.01 0.00 73 1013.0
20260905143047 71 108 0.0 2.0 0.00 0.01 0.00 76 1012.8
20260905141524 70 113 0.0 2.0 0.00 0.01 0.00 78 1012.6
20260905140023 69 99 0.0 3.0 0.00 0.01 0.00 79 1012.6
20260905134502 68 114 0.0 3.0 0.00 0.09 0.00 80 1012.7
20260905133105 67 85 0.0 2.0 0.00 0.09 0.00 85 1012.7
20260905131540 67 91 0.0 2.0 0.00 0.09 0.00 87 1012.8
20260905130037 66 122 0.0 2.0 0.00 0.09 0.00 88 1012.8
20260905124524 65 119 0.0 2.0 0.00 0.09 0.00 90 1012.7
20260905123021 64 116 0.0 1.0 0.00 0.09 0.00 91 1012.7
20260905121521 64 116 0.0 0.0 0.00 0.09 0.00 91 1012.5
20260905120021 64 115 0.0 1.0 0.00 0.09 0.00 91 1012.7
20260905114521 64 115 0.0 1.0 0.00 0.09 0.00 91 1012.6
20260905113019 63 115 0.0 0.0 0.00 0.09 0.00 91 1012.4
20260905111520 63 115 0.0 0.0 0.00 0.09 0.00 92 1012.3
20260905110017 63 115 0.0 1.0 0.00 0.09 0.00 92 1012.3
20260905104558 63 115 0.0 0.0 0.00 0.10 0.00 92 1012.3
20260905103103 63 115 0.0 0.0 0.00 0.10 0.00 92 1012.1
20260905101549 63 115 0.0 0.0 0.00 0.10 0.00 92 1012.1
20260905100109 63 115 0.0 1.0 0.00 0.10 0.00 92 1011.9
20260905094532 63 115 0.0 1.0 0.00 0.10 0.00 92 1012.0
20260905093027 64 115 0.0 1.0 0.00 0.10 0.00 92 1011.7
20260905091526 64 114 0.0 1.0 0.00 0.10 0.00 92 1011.5
20260905090026 64 113 0.0 0.0 0.00 0.10 0.00 92 1011.5
20260905084525 64 112 0.0 0.0 0.00 0.10 0.00 92 1011.7
20260905083024 64 112 0.0 0.0 0.00 0.10 0.00 92 1012.1
20260905081524 64 112 0.0 0.0 0.00 0.10 0.00 92 1011.7
20260905080023 64 112 0.0 0.0 0.00 0.10 0.00 92 1011.5
20260905074520 64 112 0.0 0.0 0.00 0.10 0.00 92 1011.4
20260905073011 64 112 0.0 0.0 0.00 0.10 0.00 92 1011.4
20260905071510 64 112 0.0 0.0 0.00 0.10 0.00 92 1011.1
20260905070009 64 112 0.0 0.0 0.00 0.10 0.00 92 1011.2
20260905064509 64 112 0.0 0.0 0.00 0.10 0.00 92 1011.3
20260905063006 64 112 0.0 0.0 0.00 0.10 0.00 92 1011.4
20260905061505 64 112 0.0 0.0 0.00 0.10 0.00 92 1011.8
20260905060004 64 112 0.0 1.0 0.00 0.10 0.00 92 1011.7
20260905054627 64 112 0.0 0.0 0.00 0.10 0.00 92 1011.6
20260905053046 64 112 0.0 0.0 0.00 0.10 0.00 92 1011.7
20260905051523 65 112 0.0 0.0 0.00 0.10 0.00 92 1011.9
20260905050023 65 112 0.0 0.0 0.00 0.10 0.00 92 1012.0
20260905044506 65 112 0.0 0.0 0.00 0.10 0.00 92 1012.0
20260905043004 65 112 0.0 0.0 0.01 0.10 0.00 92 1012.1
20260905041546 65 112 0.0 0.0 0.01 0.10 0.00 92 1011.9
20260905040047 65 112 0.0 0.0 0.01 0.10 0.00 91 1011.9
20260905034526 65 112 0.0 2.0 0.01 0.10 0.10 91 1011.9
20260905033026 66 112 0.0 0.0 0.00 0.09 0.09 92 1012.0
20260905031508 66 112 0.0 0.0 0.00 0.09 0.09 92 1012.1
20260905030012 67 112 0.0 0.0 0.00 0.09 0.09 92 1012.1
20260905024558 67 112 0.0 0.0 0.00 0.09 0.09 92 1012.3
20260905023050 67 112 0.0 0.0 0.00 0.09 0.09 92 1012.3
20260905021532 67 112 0.0 0.0 0.00 0.09 0.09 92 1012.4
20260905020032 68 112 0.0 0.0 0.00 0.09 0.09 91 1012.3
20260905014514 68 112 0.0 0.0 0.00 0.09 0.09 91 1012.2
20260905013015 69 112 0.0 0.0 0.00 0.09 0.09 91 1012.2
20260905011556 69 112 0.0 0.0 0.00 0.09 0.09 91 1012.3
20260905010106 69 112 0.0 0.0 0.00 0.09 0.09 91 1012.2
20260905004539 69 112 0.0 0.0 0.00 0.09 0.09 91 1012.1
20260905003040 69 112 0.0 0.0 0.00 0.09 0.09 91 1011.7
20260905001520 69 112 0.0 0.0 0.00 0.09 0.09 91 1011.5
20260905000027 70 112 0.0 0.0 0.00 0.09 0.09 90 1011.5
20260904234501 70 112 0.0 0.0 0.00 0.09 0.09 90 1011.5
20260904233001 71 112 0.0 1.0 0.00 0.09 0.09 90 1011.4
20260904231559 71 112 0.0 1.0 0.00 0.09 0.09 89 1011.4
20260904230044 71 114 0.0 1.0 0.00 0.09 0.09 88 1011.3
20260904224526 72 106 0.0 3.0 0.00 0.09 0.09 88 1011.2
20260904223026 72 99 0.0 2.0 0.00 0.09 0.09 88 1010.9
20260904221508 72 85 0.0 4.0 0.00 0.09 0.09 88 1011.0
20260904220008 71 4 0.0 4.0 0.00 0.09 0.09 89 1011.1
20260904214608 71 46 2.0 7.0 0.00 0.15 0.09 89 1010.8
20260904213050 71 8 0.0 9.0 0.00 0.15 0.09 89 1010.7
20260904211550 71 354 3.0 9.0 0.00 0.15 0.09 89 1010.6
20260904210035 72 335 0.0 8.0 0.00 0.15 0.09 89 1010.4
20260904204532 72 8 1.0 7.0 0.00 0.35 0.09 90 1010.5
20260904203019 73 4 4.0 8.0 0.00 0.35 0.09 89 1010.7
20260904201513 74 21 1.0 7.0 0.00 0.35 0.09 89 1010.7
20260904200111 74 37 1.0 4.0 0.00 0.35 0.09 89 1010.8
20260904194554 74 56 0.0 4.0 0.00 0.59 0.09 90 1010.7
20260904193038 74 94 0.0 2.0 0.00 0.59 0.09 89 1010.9
20260904191536 74 158 0.0 0.0 0.00 0.59 0.09 88 1011.0